Location: Boeil
(43.2167°N, 0.2667°W)
Time: 23:25:33
(UTC+00:00)

Daily predictions for brighter satellites

Satellite Brightness Start Highest point End
(mag) Time Altitude Azimuth Time Altitude Azimuth Time Altitude Azimuth
Cosmos 1503 Rocket 4.2 16:53:45 10° NNW 16:59:10 85° WSW 17:04:32 10° SSE
USA 306 2.9 16:55:03 10° SW 16:59:17 79° SE 17:03:33 10° NE
Cosmos 1271 Rocket 3.0 16:55:40 10° S 16:59:24 47° E 17:03:12 10° NNE
Lacrosse 5 rocket 3.3 16:57:13 10° WNW 16:59:43 17° NNW 17:02:19 10° NNE
SMAP 3.2 17:00:15 10° SSE 17:04:45 52° ENE 17:09:17 10° N
ATLAS 2AS CENTAUR R/B 4.0 16:58:56 10° WSW 17:06:13 40° NW 17:13:19 10° NNE
CZ-4B DEB 4.5 17:02:51 10° SE 17:08:07 46° ENE 17:13:22 10° N
Cosmos 1408 Rocket 4.3 17:05:18 10° NNE 17:09:05 29° ENE 17:12:53 10° SE
Cosmos 1697 Rocket 4.3 17:08:51 10° NNE 17:11:37 14° NE 17:14:22 10° ENE
NOAA 12 4.2 17:06:39 10° SSE 17:11:59 88° WSW 17:17:21 10° NNW
H-2A R/B 2.7 17:07:53 10° SE 17:12:34 33° ENE 17:17:10 10° N
Cosmos 1513 Rocket 4.5 17:08:24 10° S 17:14:21 61° E 17:20:24 10° NNE
USA 307 2.9 17:10:06 10° SW 17:14:23 89° NNW 17:18:32 11° NE
ATLAS CENTAUR R/B 1.6 17:14:57 10° SW 17:18:57 73° NW 17:23:19 10° NNE
Cosmos 2034 Rocket 4.3 17:14:08 10° SSE 17:19:52 42° E 17:25:36 10° NNE
Cosmos 1777 Rocket 4.0 17:14:57 10° NNW 17:20:14 69° ENE 17:25:29 10° SSE
Cosmos 1939 Rocket 2.9 17:18:02 10° SSE 17:22:10 84° ENE 17:26:19 10° N
Lacrosse 5 1.9 17:17:59 10° NW 17:23:06 69° NE 17:28:11 10° SE
USA 234 4.1 17:22:22 10° SSE 17:28:43 54° SW 17:35:06 10° NW
NOSS 2-1 (C) 3.3 17:25:47 10° SW 17:29:04 59° NW 17:32:11 11° NNE
NOSS 3-1 (C) 4.4 17:22:41 10° NNW 17:29:41 45° NE 17:37:51 10° ESE
Okean 3 Rocket 3.7 17:25:41 10° N 17:30:14 86° W 17:34:43 10° S
Cosmos 1656 4.3 17:26:39 10° N 17:31:33 31° NE 17:36:28 10° ESE
MOS 1-B Rocket 4.3 17:27:00 10° NNE 17:32:28 45° E 17:38:26 10° S
CZ-2D R/B 3.4 17:30:02 10° SSE 17:33:46 50° ENE 17:37:31 10° N
GEOS 3 Rocket 3.9 17:29:36 10° ESE 17:34:35 46° NE 17:39:33 10° NNW
Cosmos 1862 3.7 17:31:27 10° NNW 17:35:25 68° W 17:39:22 10° S
Cosmos 1461 4.0 17:31:26 10° WSW 17:35:29 41° NW 17:39:24 10° NNE
PSLV R/B 3.6 17:32:03 10° SSE 17:35:41 64° ENE 17:39:20 10° N
MOS 1-B 4.4 17:30:13 10° SSE 17:35:52 59° ENE 17:41:32 10° N
USA 308 3.2 17:32:16 10° WSW 17:36:30 63° NW 17:39:45 16° NE
SL-4 R/B 4.4 17:34:13 10° WNW 17:38:15 29° SW 17:42:21 10° SSE
NOSS 2-1 (D) 3.7 17:35:08 10° SW 17:38:21 46° NW 17:41:11 12° NNE
Cosmos 1500 Rocket 4.0 17:38:30 10° N 17:42:42 38° ENE 17:46:50 10° SE
ATLAS 5 CENTAUR R/B 4.4 17:39:05 10° NW 17:44:17 33° WSW 17:50:13 10° S
ATLAS 3B R/B 4.3 17:38:07 10° NW 17:44:51 42° WSW 17:51:49 10° S
SJ 16-02 1.3 17:40:38 10° NNW 17:45:02 87° ENE 17:49:24 10° SSE
BREEZE-M DEB (TANK) 4.2 17:36:33 10° WNW 17:46:43 79° SSW 17:49:49 12° SE
Cosmos 1842 Rocket 3.5 17:46:41 10° S 17:51:06 86° E 17:55:35 10° N
Cosmos 1805 Rocket 4.3 17:49:11 10° NNE 17:52:58 28° ENE 17:56:43 10° SE
CZ-4B R/B 3.2 17:47:41 10° SSE 17:53:05 60° ENE 17:58:25 10° N
CZ-4C R/B 4.2 17:49:12 10° NNW 17:53:54 19° NNE 17:56:09 17° NE
TIMED 4.5 17:52:40 10° S 17:56:58 61° ESE 17:59:55 20° NNE
ATLAS 5 CENTAUR R/B 4.0 17:50:20 10° NW 17:57:01 20° N 17:58:53 16° NNE
Cosmos 1833 Rocket 3.5 17:52:14 10° SSE 17:57:03 30° ESE 17:58:47 25° ENE
Cosmos 1606 4.0 18:01:55 10° SSW 18:05:28 40° WNW 18:09:03 10° N
USA 305 3.9 18:03:40 10° W 18:07:36 37° NNW 18:09:32 24° NNE
Meteor 1-25 Rocket 4.2 18:03:16 10° N 18:08:44 58° ENE 18:14:13 10° SSE
Cosmos 2026 Rocket 4.1 18:03:34 10° N 18:09:35 50° ENE 18:15:28 10° SSE
USA 276 3.7 18:08:05 10° NW 18:10:26 23° N 18:10:26 23° N
Cosmos 2195 Rocket 4.4 18:04:50 10° N 18:10:55 61° E 18:16:59 10° SSE
Okean O Rocket 1.5 18:07:31 10° SSE 18:11:54 69° ENE 18:16:21 10° N
ARGOS 3.1 18:07:39 10° SSE 18:13:02 69° ENE 18:18:26 10° N
COSMO-SKYMED 1 2.5 18:11:30 12° NNE 18:15:35 88° E 18:19:55 10° SSW
ATLAS CENTAUR R/B 3.0 18:06:19 10° SW 18:17:09 72° SE 18:19:17 36° ENE
CZ-4C R/B 4.5 18:20:21 22° SSE 18:20:21 22° SSE 18:21:44 10° S
ERBS 2.8 18:16:21 10° WSW 18:19:27 48° NW 18:19:49 45° NNW
Cosmos 1782 3.9 18:16:37 10° SSE 18:18:52 28° SE 18:18:52 28° SE
Cosmos 1937 Rocket 4.2 18:17:00 10° N 18:21:06 33° NE 18:21:06 33° NE
Cosmos 2221 4.1 18:21:36 10° SW 18:25:27 34° WNW 18:29:22 10° N
Cosmos 1763 Rocket 3.3 18:21:48 10° S 18:26:49 71° ESE 18:28:44 38° NE
ISS -1.7 18:25:37 10° NW 18:27:49 19° NNW 18:27:49 19° NNW
Cosmos 1933 3.3 18:28:16 10° S 18:32:20 86° WNW 18:33:24 49° N
deb Chang Zheng 4 4.2 18:28:22 10° S 18:32:35 57° W 18:36:51 10° NNW
YAOGAN 1 4.3 18:35:37 20° N 18:35:37 20° N 18:37:00 10° N
Cosmos 1340 Rocket 3.5 18:29:16 10° NNW 18:33:14 55° W 18:37:12 10° S
CZ-2C R/B 2.8 18:30:29 10° N 18:35:42 67° WNW 18:40:49 10° SSW
IRAS Rocket 4.4 18:38:23 48° ESE 18:38:23 48° ESE 18:43:19 10° S
Feng Yun 1-1 Rocket 4.2 18:32:11 10° SSE 18:38:06 77° ENE 18:44:01 10° NNW
Meteor 2-21 4.3 18:32:27 10° N 18:38:35 75° E 18:44:38 10° SSE
USA 306 4.3 18:35:51 10° W 18:39:31 28° NNW 18:40:01 27° N
Lacrosse 5 rocket 3.8 18:39:03 10° NNW 18:39:29 11° N 18:39:29 11° N
Landsat 5 3.8 18:38:53 31° N 18:40:50 66° WNW 18:44:54 10° SSW
Cosmos 990 Rocket 3.9 18:37:10 10° NNW 18:42:25 87° WSW 18:46:44 15° SSE
H-2A R/B 3.8 18:47:13 10° SSW 18:51:57 32° W 18:56:35 10° NNW
USA 229 DEB 3.8 18:45:27 10° NNW 18:52:48 68° NE 18:54:57 49° ESE
USA 229 3.8 18:45:33 10° NNW 18:52:53 68° NE 18:54:59 49° ESE
Cosmos 1092 Rocket 4.4 18:47:30 10° NNW 18:53:46 63° W 19:00:00 10° S
COSMOS 2455 3.7 18:50:51 10° S 18:54:37 34° SSE 18:54:37 34° SSE
Cosmos 1697 Rocket 2.6 18:51:01 10° NNW 18:56:10 67° NNE 18:56:10 67° NNE
Cosmos 1980 Rocket 3.6 18:51:51 10° NNW 18:54:31 25° N 18:54:31 25° N
COSMOS 2406 3.1 18:51:41 10° SSW 18:57:17 73° SE 18:57:17 73° SE
ATLAS CENTAUR R/B 4.1 18:56:37 10° WNW 18:58:41 13° NNW 19:00:04 12° NNW
Meteor 1-26 Rocket 4.3 18:52:54 10° SSW 18:58:46 81° W 19:02:35 24° N
Cosmos 44 3.4 18:54:48 10° NW 18:59:25 66° WSW 18:59:25 66° WSW
Cosmos 2082 Rocket 3.6 18:55:42 10° S 18:58:13 25° SSE 18:58:13 25° SSE
Cosmos 2142 Rocket 4.3 18:56:36 10° S 19:02:43 83° E 19:04:23 51° NNE
Lacrosse 5 4.1 19:01:45 10° WNW 19:05:39 22° WSW 19:09:31 10° S
Cosmos 1898 Rocket 3.7 19:06:14 10° NNW 19:11:28 66° WSW 19:11:39 66° WSW
NOSS 3-1 (A) 4.0 19:08:30 10° NW 19:16:10 87° SW 19:19:12 46° SSE
Cosmos 2279 Rocket 4.2 19:21:03 10° SSW 19:27:14 68° W 19:28:11 59° NNW
Cosmos 1833 Rocket 3.7 19:35:30 10° SW 19:40:32 41° WNW 19:40:32 41° WNW
CZ-4C R/B 3.8 19:37:03 10° NNW 19:41:21 37° N 19:41:21 37° N
